Overview Statistics Trail Chart Weather Telemetry Raw packets
 

This is the latest recevied weather packets stored in our database for station/object N8BAP. If no packets are shown the sender has not sent any weather packets the latest 10 day(s).

<< 36 37 38 39 40 41 42 >>
Time Temp. Humidity Pressure Rain* Wind** Luminosity Snow
1788373874 33.33° C 58% 1023.6 hPa 0 mm - 626 W/m² -
1788373570 32.78° C 57% 1023.7 hPa 0 mm - 629 W/m² -
1788373266 33.33° C 56% 1023.7 hPa 0 mm - 594 W/m² -
1788372962 33.33° C 59% 1023.7 hPa 0 mm - 639 W/m² -
1788372655 33.33° C 58% 1023.7 hPa 0 mm - 663 W/m² -
1788372349 33.33° C 57% 1023.9 hPa 0 mm - 649 W/m² -
1788372046 33.33° C 58% 1024 hPa 0 mm - 602 W/m² -
1788371745 33.33° C 57% 1023.9 hPa 0 mm - 652 W/m² -
1788371442 32.78° C 57% 1023.9 hPa 0 mm - 625 W/m² -
1788371138 32.78° C 59% 1024 hPa 0 mm - 647 W/m² -
1788370850 32.78° C 58% 1024.1 hPa 0 mm - 614 W/m² -
1788370532 32.22° C 63% 1023.9 hPa 0 mm - 641 W/m² -
1788370232 32.22° C 63% 1024 hPa 0 mm - 638 W/m² -
1788369927 32.78° C 61% 1023.9 hPa 0 mm - 607 W/m² -
1788369622 32.78° C 58% 1024.1 hPa 0 mm - 612 W/m² -
1788369328 32.22° C 58% 1024.1 hPa 0 mm - 578 W/m² -
1788369014 32.78° C 61% 1024.1 hPa 0 mm - 597 W/m² -
1788368708 32.78° C 59% 1024.2 hPa 0 mm - 605 W/m² -
1788368404 32.22° C 60% 1024.1 hPa 0 mm - 604 W/m² -
1788368103 32.22° C 60% 1024.3 hPa 0 mm - 574 W/m² -
1788367798 32.22° C 59% 1024.2 hPa 0 mm - 593 W/m² -
1788367493 32.22° C 63% 1024.2 hPa 0 mm - 583 W/m² -
1788367192 32.22° C 61% 1024.4 hPa 0 mm - 596 W/m² -
1788366888 32.22° C 62% 1024.4 hPa 0 mm - 606 W/m² -
1788366585 32.22° C 63% 1024.4 hPa 0 mm - 601 W/m² -

* Rain latest hour (hover to see other rain measurements)
** Current wind speed in m/s (hover to see current wind gust speed)